COSMOS 2251 DEB, 34678

Orbit data source: Space-Track

COSMOS 2251 DEB, 34678 is space debris in LEO originally from a launch on Wed, 16 Jun 1993 UTC launched from the Plesetsk Missile And Space Complex (PKMTR). The debris from Iridium 33, an American commercial communications satellite, has been tracked extensively since its accidental collision with the defunct Russian satellite Cosmos 2251 in 2009. This event, occurring at high speed in low Earth orbit (LEO), generated thousands of pieces of space debris, significantly increasing the risk of further collisions. The Iridium 33 debris cloud has impacted space traffic management and orbital debris mitigation strategies, making it a subject of ongoing study in space situational awareness.

Loading next visibility...
Identifier
34678, 1993-036XY
Orbit
LEO
Country
Flag of CISCIS
Related business
Manufacturer
Unknown
Mission
Spacecraft
Bus & Motor
Unknown
Mass
Unknown
Launch date (UTC)
1993-06-16 (33 years ago)
Launch vehicle
Unknown
Launch site
Plesetsk Missile And Space Complex (PKMTR)
Object type
Payload
Rocket body
Debris
Shape & HBR
Unknown shape, 0.1 m
Radar Cross Section
Medium (>0.1 m² and <1 m²)

Expand to show TLE details & history
Last TLE update: 19 hours ago

TLE from 19 hours ago
0 COSMOS 2251 DEB
1 34678U 93036XY  26206.28081635  .00000011  00000-0  14354-4 0  9991
2 34678  74.0391 317.4649 0026203 312.4431  74.7118 14.30097180905891
Epoch: 2026-07-25T06:44Z
TLE epoch observation values (Epoch: 2026-07-25T06:44:22.532Z)
Latitude
26.34523°
Longitude
-78.5255°
Altitude
789.385 km
Speed
7.464 km/s
True Right ascension
21h 42m 15s
True Declination
26° 12' 34"
Sunlit
Object was in full shadow at epoch
Visualization orbit readout
Latitude
Unknown
Longitude
Unknown
Altitude
Unknown
Speed
Unknown
Apparent Right ascension
Unknown
Apparent Declination
Unknown
Sunlit
N/A
Visualization observer readout
Local Sidereal Time
15:22:24
Azimuth
Unknown
Elevation
Unknown
Doppler factor
Unknown
Orbital elements
Apogee altitude
807.816 km
Perigee altitude
770.256 km
Semi-major axis
7,167.173 km
Eccentricity
0.00262
Inclination
74.0391°
RAAN
317.4649°
Arg. of periapsis
312.4431°
True anomaly
75.00169°
Mean anomaly
74.7118°
Eccentric anomaly
74.85672°
Mean motion
3.57702 °/min
Orbital period
100.64 mins
BSTAR
0.000014354

Documentation

Showing up to 5 results
|